CW5072 Palm Harbor FL US current weather conditions

sailwx.info

Wind from 312

Air temperature 15.0° C
Dewpoint 14.0° C

Last reported at 2019-Mar-22 05:03 UTC.
Time now 2019-Mar-22 05:55 UTC

Location: N 28°05' W 082°43'.
View on Google Maps.

See reports from other nearby stations

  
Tides and Currents Weather Stations Pressure Air Temp Water Temp Dewpoint Dewpoint Depression Visibility Wind Speed Wind Dir Waves Ship Positions
date/time (UTC)wind fromknots sea level pressurealtimeterstation pressurevisibilityair tempwater tempwave heightnotes
2019-Mar-22 05:03 312 15.0
2019-Mar-22 04:53 279 15.0
2019-Mar-22 04:43 252 15.0
2019-Mar-22 04:33 327 15.0
2019-Mar-22 04:23 271 15.0
2019-Mar-22 04:13 332 15.0
2019-Mar-22 04:03 308 0 gusting 5 14.4
2019-Mar-22 03:53 333 14.4
2019-Mar-22 03:43 282 14.4
2019-Mar-22 03:33 270 14.4
2019-Mar-22 03:23 276 0 gusting 3 14.4
2019-Mar-22 03:13 272 14.4
2019-Mar-22 03:03 277 14.4
2019-Mar-22 02:53 271 14.4
2019-Mar-22 02:43 319 15.0
2019-Mar-22 02:33 295 16.1
2019-Mar-22 02:23 065 0 gusting 7 17.8
2019-Mar-22 02:13 340 17.8
2019-Mar-22 02:03 260 17.8
2019-Mar-22 01:53 304 17.8
2019-Mar-22 01:43 258 17.8
2019-Mar-22 01:33 300 17.8
2019-Mar-22 01:23 302 17.8
2019-Mar-22 01:13 252 0 gusting 4 17.8
2019-Mar-22 01:03 263 0 gusting 4 18.3
2019-Mar-22 00:53 315 18.3
2019-Mar-22 00:43 311 18.3
2019-Mar-22 00:33 263 1 gusting 4 18.3
2019-Mar-22 00:23 277 18.9
2019-Mar-22 00:13 275 18.9
2019-Mar-22 00:03 285 0 gusting 4 18.9
2019-Mar-21 23:53 248 19.4
2019-Mar-21 23:43 313 19.4
2019-Mar-21 23:33 247 19.4
2019-Mar-21 23:23 064 19.4
2019-Mar-21 23:13 274 19.4
2019-Mar-21 23:03 264 20.0
2019-Mar-21 22:53 317 0 gusting 5 20.0
2019-Mar-21 22:43 242 0 gusting 3 20.0
2019-Mar-21 22:33 241 20.6
2019-Mar-21 22:23 221 20.0
2019-Mar-21 22:13 231 20.0
2019-Mar-21 22:03 331 0 gusting 4 20.6
2019-Mar-21 21:53 190 20.6
2019-Mar-21 21:43 242 20.6
2019-Mar-21 21:33 246 21.1
2019-Mar-21 21:23 338 21.1
2019-Mar-21 21:13 231 21.1
2019-Mar-21 21:03 253 21.1
2019-Mar-21 20:53 249 21.1
2019-Mar-21 20:43 008 21.1
2019-Mar-21 20:33 352 21.1
2019-Mar-21 20:23 265 0 gusting 4 21.1
2019-Mar-21 20:13 237 21.1
2019-Mar-21 20:03 244 21.1
2019-Mar-21 19:53 302 21.1
2019-Mar-21 19:43 253 21.1
2019-Mar-21 19:33 016 21.1
2019-Mar-21 19:23 244 21.1
2019-Mar-21 19:13 230 21.7
2019-Mar-21 19:03 041 0 gusting 5 21.1
2019-Mar-21 18:53 269 0 gusting 4 21.1
2019-Mar-21 18:43 312 21.7
2019-Mar-21 18:33 277 21.7
2019-Mar-21 18:23 353 0 gusting 6 21.7
2019-Mar-21 18:13 311 21.1
2019-Mar-21 18:03 357 1 gusting 7 21.7
2019-Mar-21 17:53 254 1 gusting 6 21.1
2019-Mar-21 17:43 287 0 gusting 6 21.1
2019-Mar-21 17:33 267 1 gusting 4 21.1
2019-Mar-21 17:23 293 21.1
2019-Mar-21 17:13 279 21.1
2019-Mar-21 17:03 263 21.1
2019-Mar-21 16:53 268 2 gusting 6 21.1
2019-Mar-21 16:43 322 21.1
2019-Mar-21 16:33 339 1 gusting 6 21.1
2019-Mar-21 16:23 359 1 gusting 8 21.1
2019-Mar-21 16:13 057 1 gusting 6 21.1
2019-Mar-21 16:03 319 0 gusting 2 20.6
2019-Mar-21 15:53 293 20.6
2019-Mar-21 15:43 268 20.6
2019-Mar-21 15:33 246 20.6
2019-Mar-21 15:23 307 1 gusting 6 20.6
2019-Mar-21 15:13 321 0 gusting 3 21.1
2019-Mar-21 15:03 262 21.1
2019-Mar-21 14:53 331 21.1
2019-Mar-21 14:43 014 21.1
2019-Mar-21 14:33 060 20.6
2019-Mar-21 14:23 128 20.6
2019-Mar-21 14:13 305 20.0
2019-Mar-21 14:03 014 19.4
2019-Mar-21 13:53 314 18.9
2019-Mar-21 13:43 097 18.3
2019-Mar-21 13:33 025 18.3
2019-Mar-21 13:23 090 17.8
2019-Mar-21 13:13 282 17.2
2019-Mar-21 13:03 301 16.7
2019-Mar-21 12:53 315 16.1
2019-Mar-21 12:43 299 0 gusting 3 16.1
2019-Mar-21 12:33 296 15.6
2019-Mar-21 12:23 283 15.0
2019-Mar-21 12:13 283 15.0
2019-Mar-21 12:03 283 15.0
2019-Mar-21 11:53 283 15.0
2019-Mar-21 11:43 283 15.0
2019-Mar-21 11:33 283 15.0
2019-Mar-21 11:23 283 15.0
2019-Mar-21 11:13 323 15.0
2019-Mar-21 11:03 323 14.4
2019-Mar-21 10:53 270 14.4
2019-Mar-21 10:43 270 14.4
2019-Mar-21 10:33 270 14.4
2019-Mar-21 10:23 270 14.4
2019-Mar-21 10:13 270 14.4
2019-Mar-21 10:03 270 14.4
2019-Mar-21 09:53 270 14.4
2019-Mar-21 09:43 270 15.0
2019-Mar-21 09:33 270 15.0
2019-Mar-21 09:23 270 15.0
2019-Mar-21 09:13 270 15.0
2019-Mar-21 09:03 270 15.0
2019-Mar-21 08:53 270 15.6
2019-Mar-21 08:43 270 15.6
2019-Mar-21 08:33 270 15.6
2019-Mar-21 08:23 270 15.6
2019-Mar-21 08:13 270 15.6
2019-Mar-21 08:03 270 15.6
2019-Mar-21 07:53 270 15.0
2019-Mar-21 07:45 270 15.0
2019-Mar-21 07:33 270 15.0
2019-Mar-21 07:23 269 15.6
2019-Mar-21 07:13 269 15.6
2019-Mar-21 07:03 269 16.1
2019-Mar-21 06:53 269 16.7
2019-Mar-21 06:43 269 16.7
2019-Mar-21 06:33 269 17.2
2019-Mar-21 06:23 269 17.2
2019-Mar-21 06:13 323 17.2
2019-Mar-21 06:03 323 17.8
2019-Mar-21 05:53 324 17.8
2019-Mar-21 05:43 292 17.8
2019-Mar-21 05:33 314 17.8
2019-Mar-21 05:23 034 17.8
2019-Mar-21 05:13 034 17.8
2019-Mar-21 05:03 034 17.8
2019-Mar-21 04:53 036 18.3
2019-Mar-21 04:43 036 18.3
2019-Mar-21 04:33 025 18.3
2019-Mar-21 04:23 030 18.3
2019-Mar-21 04:13 020 18.3
2019-Mar-21 04:03 020 18.9
2019-Mar-21 03:53 307 18.9
2019-Mar-21 03:43 327 18.9
2019-Mar-21 03:33 314 18.9
2019-Mar-21 03:23 313 18.9
2019-Mar-21 03:13 074 18.9
2019-Mar-21 03:03 015 18.9
2019-Mar-21 02:53 322 18.9
2019-Mar-21 02:43 030 18.9
2019-Mar-21 02:33 334 18.9
2019-Mar-21 02:23 275 18.9
2019-Mar-21 02:13 303 18.9
2019-Mar-21 02:03 297 0 gusting 3 18.9
2019-Mar-21 01:53 263 18.9
2019-Mar-21 01:43 304 18.9
2019-Mar-21 01:33 320 18.9
2019-Mar-21 01:23 300 0 gusting 3 18.9
2019-Mar-21 01:13 311 0 gusting 3 19.4
2019-Mar-21 01:03 003 19.4
2019-Mar-21 00:53 277 19.4
2019-Mar-21 00:43 282 19.4
2019-Mar-21 00:33 296 19.4
2019-Mar-21 00:23 340 19.4
2019-Mar-21 00:13 338 19.4
2019-Mar-21 00:03 286 19.4
2019-Mar-20 23:53 299 20.0
2019-Mar-20 23:43 339 20.0
2019-Mar-20 23:33 285 0 gusting 4 20.0
2019-Mar-20 23:23 075 0 gusting 5 20.6
2019-Mar-20 23:13 345 20.6
2019-Mar-20 23:03 146 20.6
2019-Mar-20 22:53 313 20.6
2019-Mar-20 22:43 313 21.1
2019-Mar-20 22:33 315 21.1
2019-Mar-20 22:23 020 0 gusting 5 21.1
2019-Mar-20 22:13 025 21.1
2019-Mar-20 22:03 013 1 gusting 5 21.7
2019-Mar-20 21:53 030 1 gusting 5 21.7
2019-Mar-20 21:43 267 21.7
2019-Mar-20 21:33 288 1 gusting 6 22.2
2019-Mar-20 21:23 315 22.8
2019-Mar-20 21:13 009 0 gusting 8 22.2
2019-Mar-20 21:03 342 1 gusting 6 22.2
2019-Mar-20 20:53 039 1 gusting 5 22.2
2019-Mar-20 20:43 030 0 gusting 6 22.2
2019-Mar-20 20:33 030 22.2
2019-Mar-20 20:23 286 0 gusting 4 22.2
2019-Mar-20 20:13 319 22.2
2019-Mar-20 20:03 245 0 gusting 3 22.8
2019-Mar-20 19:53 036 1 gusting 4 22.8
2019-Mar-20 19:43 025 22.8
2019-Mar-20 19:33 014 0 gusting 5 22.2
2019-Mar-20 19:23 298 1 gusting 5 22.2
2019-Mar-20 19:13 286 0 gusting 6 22.8
2019-Mar-20 19:03 357 1 gusting 6 22.8
2019-Mar-20 18:53 056 0 gusting 7 22.8
2019-Mar-20 18:43 030 1 gusting 6 22.8
2019-Mar-20 18:33 304 22.2
2019-Mar-20 18:23 272 22.2
2019-Mar-20 18:13 071 1 gusting 5 22.8
2019-Mar-20 18:03 313 1 gusting 6 22.8
2019-Mar-20 17:53 054 0 gusting 6 22.8
2019-Mar-20 17:43 030 22.2
2019-Mar-20 17:33 052 2 gusting 6 22.2
2019-Mar-20 17:23 030 22.2
2019-Mar-20 17:13 104 2 gusting 6 21.7
2019-Mar-20 17:03 040 22.2
2019-Mar-20 16:53 078 2 gusting 4 21.7
2019-Mar-20 16:43 352 1 gusting 7 21.7
2019-Mar-20 16:33 105 1 gusting 6 21.7
2019-Mar-20 16:23 352 0 gusting 4 21.1
2019-Mar-20 16:13 116 21.1
2019-Mar-20 16:03 356 1 gusting 4 21.1
2019-Mar-20 15:53 084 1 gusting 5 21.7
2019-Mar-20 15:43 085 1 gusting 6 21.1
2019-Mar-20 15:33 121 3 gusting 7 20.6
2019-Mar-20 15:23 088 2 gusting 11 20.0
2019-Mar-20 15:13 065 2 gusting 6 20.0
2019-Mar-20 15:03 030 1 gusting 5 19.4
2019-Mar-20 14:53 110 2 gusting 6 19.4
2019-Mar-20 14:43 010 2 gusting 6 18.9
2019-Mar-20 14:33 345 3 gusting 6 18.9
2019-Mar-20 14:23 074 1 gusting 9 18.9
2019-Mar-20 14:13 063 3 gusting 6 18.9
2019-Mar-20 14:03 049 3 gusting 7 18.9
2019-Mar-20 13:53 330 1 gusting 5 18.3
2019-Mar-20 13:43 083 1 gusting 6 17.8
2019-Mar-20 13:33 036 1 gusting 6 17.2
2019-Mar-20 13:23 046 0 gusting 5 17.2
2019-Mar-20 13:13 268 0 gusting 4 16.7
2019-Mar-20 13:03 132 0 gusting 4 16.1
2019-Mar-20 12:53 065 0 gusting 4 15.6
2019-Mar-20 12:43 103 0 gusting 4 15.6
2019-Mar-20 12:33 079 0 gusting 3 15.0
2019-Mar-20 12:23 296 0 gusting 3 15.0
2019-Mar-20 12:13 053 15.0
2019-Mar-20 12:03 073 15.0
2019-Mar-20 11:53 009 0 gusting 3 15.0
2019-Mar-20 11:43 068 0 gusting 3 15.0
2019-Mar-20 11:33 099 15.0
2019-Mar-20 11:23 057 15.0
2019-Mar-20 11:13 080 0 gusting 4 15.0
2019-Mar-20 11:03 119 1 gusting 6 15.0
2019-Mar-20 10:53 061 0 gusting 5 15.0
2019-Mar-20 10:43 059 0 gusting 6 15.0
2019-Mar-20 10:33 099 0 gusting 4 15.0
2019-Mar-20 10:23 084 0 gusting 5 15.0
2019-Mar-20 10:13 155 1 gusting 6 15.0
2019-Mar-20 10:03 120 1 gusting 8 15.0
2019-Mar-20 09:53 148 2 gusting 7 15.0
2019-Mar-20 09:43 127 0 gusting 7 15.0
2019-Mar-20 09:33 020 15.0
2019-Mar-20 09:23 046 1 gusting 7 15.0
2019-Mar-20 09:13 099 0 gusting 6 15.0
2019-Mar-20 09:03 007 1 gusting 6 15.6
2019-Mar-20 08:53 149 1 gusting 5 15.6
2019-Mar-20 08:43 038 0 gusting 4 15.6
2019-Mar-20 08:33 020 0 gusting 6 15.6
2019-Mar-20 08:23 117 1 gusting 6 15.6
2019-Mar-20 08:13 082 0 gusting 4 15.6
2019-Mar-20 08:03 112 0 gusting 6 15.6
2019-Mar-20 07:53 071 1 gusting 5 15.6
2019-Mar-20 07:43 152 0 gusting 6 15.6
2019-Mar-20 07:33 040 2 gusting 5 15.6
2019-Mar-20 07:23 014 15.6
2019-Mar-20 07:13 136 1 gusting 6 15.6
2019-Mar-20 07:03 082 1 gusting 6 15.6
2019-Mar-20 06:53 091 2 gusting 5 15.6
2019-Mar-20 06:43 356 1 gusting 6 15.6
2019-Mar-20 06:33 047 0 gusting 6 15.6
2019-Mar-20 06:23 120 2 gusting 8 15.6
2019-Mar-20 06:13 234 0 gusting 6 15.6
2019-Mar-20 06:03 016 2 gusting 7 15.6
2019-Mar-20 05:53 354 2 gusting 7 15.6
2019-Mar-20 05:43 118 3 gusting 6 15.6
2019-Mar-20 05:33 136 2 gusting 8 15.6
2019-Mar-20 05:23 052 2 gusting 10 15.6
2019-Mar-20 05:13 118 3 gusting 6 15.6
2019-Mar-20 05:03 120 1 gusting 6 15.6